Location: Barcelona
(41.3829°N, 2.1774°E)
Time: 09:21:58
(UTC+00:00)

ISS - Pass Details

Date: 12 May 2025
Orbit: 416 x 420 km, 51.6° (Epoch: 12 May)

Event Time Altitude Azimuth Distance (km) Brightness Sun altitude
Rises 19:20:35 0° 230° (SW) 2,348 0.3 -4.2°
Reaches altitude 10° 19:22:40 10° 229° (SW) 1,488 -0.7 -4.5°
Maximum altitude 19:26:00 78° 144° (SE) 429 -3.8 -5.1°
Drops below altitude 10° 19:29:21 10° 57° (ENE) 1,495 -1.2 -5.6°
Sets 19:31:27 0° 56° (NE) 2,360 -0.2 -5.9°
